FW3190 Weather Reports


time (UTC)temp
F
wind
direction
speed
knots
gust
knots
rain 1hr
in
rain 24hr
in
rain mn
in
humidity
%
barometer
mb
20260506201536 66 115 3.5 7.8 0.00 0.00 0.00 68 1022.9
20260506200040 66 60 3.5 10.4 0.00 0.00 0.00 68 1022.9
20260506194530 66 60 2.6 7.8 0.00 0.00 0.00 70 1023.0
20260506193030 65 354 2.6 8.7 0.00 0.00 0.00 71 1023.0
20260506191526 62 69 2.6 8.7 0.00 0.00 0.00 75 1023.3
20260506190024 63 77 3.5 7.8 0.00 0.00 0.00 74 1023.4
20260506184525 64 63 1.7 7.0 0.00 0.00 0.00 72 1023.4
20260506183021 62 55 1.7 7.8 0.00 0.00 0.00 75 1023.5
20260506181519 62 27 2.6 6.1 0.00 0.00 0.00 74 1023.5
20260506180018 61 68 1.7 7.8 0.00 0.00 0.00 77 1023.3
20260506174514 60 37 1.7 5.2 0.00 0.00 0.00 77 1023.3
20260506173010 60 37 1.7 6.1 0.00 0.00 0.00 77 1023.3
20260506171506 60 34 0.0 3.5 0.00 0.00 0.00 78 1023.5
20260506170005 59 233 1.7 4.3 0.00 0.00 0.00 77 1023.6
20260506164502 58 37 0.0 2.6 0.00 0.00 0.00 82 1023.6
20260506163107 57 55 0.9 4.3 0.00 0.00 0.00 80 1023.6
20260506161559 57 110 0.0 2.6 0.00 0.00 0.00 82 1023.6
20260506160110 57 41 0.0 2.6 0.00 0.00 0.00 81 1023.7
20260506154555 56 281 0.0 0.9 0.00 0.01 0.00 84 1023.7
20260506153055 56 336 0.0 1.7 0.00 0.01 0.00 84 1023.7
20260506151550 55 116 0.0 1.7 0.00 0.01 0.00 85 1023.7
20260506150048 55 17 0.0 4.3 0.00 0.01 0.00 85 1023.5
20260506144547 54 42 0.0 1.7 0.00 0.02 0.00 86 1023.6
20260506143044 54 59 0.0 0.0 0.00 0.02 0.00 87 1023.5
20260506141559 53 101 0.0 0.9 0.00 0.02 0.00 87 1023.2
20260506140040 53 101 0.0 0.0 0.00 0.02 0.00 88 1023.1
20260506134537 53 101 0.0 0.0 0.00 0.02 0.00 88 1022.9
20260506133036 53 101 0.0 0.9 0.00 0.02 0.00 88 1022.8
20260506131539 53 108 0.0 0.9 0.00 0.02 0.00 87 1022.7
20260506130034 53 60 0.0 0.9 0.00 0.02 0.00 87 1022.6
20260506124538 53 89 0.0 3.5 0.00 0.02 0.00 87 1022.5
20260506123039 53 111 0.0 1.7 0.00 0.02 0.00 87 1022.4
20260506121530 53 103 0.0 0.9 0.00 0.02 0.00 87 1022.3
20260506120046 53 114 0.9 2.6 0.00 0.02 0.00 87 1022.2
20260506114530 53 86 0.0 1.7 0.00 0.02 0.00 87 1022.2
20260506113028 53 99 0.0 0.0 0.00 0.02 0.00 87 1022.0
20260506111526 53 98 0.0 2.6 0.00 0.02 0.00 87 1021.7
20260506110027 53 101 0.9 2.6 0.00 0.02 0.00 87 1021.7
20260506104524 53 91 0.9 2.6 0.00 0.02 0.00 87 1021.7
20260506103029 53 101 0.9 2.6 0.00 0.02 0.00 87 1021.6
20260506101523 53 95 0.0 1.7 0.00 0.02 0.00 88 1021.7
20260506100023 53 103 0.9 1.7 0.00 0.02 0.00 88 1021.6
20260506094531 53 109 0.9 1.7 0.00 0.03 0.00 88 1021.6
20260506093039 53 90 0.0 1.7 0.00 0.03 0.00 88 1021.5
20260506091523 53 44 0.0 1.7 0.00 0.03 0.00 88 1021.7
20260506090020 53 58 0.0 0.9 0.00 0.03 0.00 88 1021.6
20260506084519 53 68 0.0 1.7 0.00 0.07 0.00 88 1021.6
20260506083018 53 60 0.0 2.6 0.00 0.07 0.00 88 1021.6
20260506081516 53 108 0.0 1.7 0.00 0.07 0.00 89 1021.7
20260506073012 52 102 0.0 0.9 0.00 0.10 0.00 90 1021.4
20260506071510 52 65 0.0 0.9 0.00 0.10 0.00 89 1021.3
20260506061505 53 42 0.0 4.3 0.00 0.11 0.10 87 1021.1
20260506050114 54 50 2.6 7.8 0.00 0.11 0.10 84 1020.7
20260506044603 54 52 3.5 7.0 0.00 0.11 0.10 84 1020.7
20260506044502 54 41 3.5 7.0 0.00 0.11 0.10 84 1020.7
20260506043100 54 58 1.7 7.8 0.00 0.11 0.10 85 1020.5
20260506041558 54 81 3.5 6.1 0.00 0.11 0.10 85 1020.4
20260506040059 55 46 1.7 7.0 0.00 0.11 0.10 85 1020.2
20260506034556 55 77 1.7 7.8 0.00 0.11 0.10 85 1020.0
20260506033052 55 65 0.9 4.3 0.00 0.11 0.10 84 1019.7
20260506031559 55 102 4.3 9.6 0.00 0.11 0.10 84 1019.4
20260506030108 55 44 2.6 9.6 0.00 0.11 0.10 83 1019.2
20260506024548 56 81 5.2 9.6 0.00 0.11 0.10 82 1019.3
20260506023047 56 32 2.6 9.6 0.00 0.11 0.10 81 1019.1
20260506021545 56 68 3.5 9.6 0.00 0.11 0.10 80 1019.0
20260506020045 57 53 1.7 13.0 0.00 0.11 0.10 80 1018.9
20260506014545 57 46 3.5 8.7 0.00 0.11 0.10 79 1018.7
20260506013047 57 49 3.5 7.0 0.00 0.11 0.10 80 1018.8
20260506011547 57 37 2.6 8.7 0.00 0.11 0.10 80 1018.9
20260506010143 57 57 1.7 9.6 0.00 0.11 0.10 80 1018.9
20260506004615 57 25 2.6 8.7 0.00 0.11 0.10 79 1018.8
20260506003042 58 54 0.9 6.1 0.00 0.11 0.10 79 1018.7
20260506001541 58 91 1.7 9.6 0.00 0.11 0.10 78 1018.6
20260506000044 58 23 1.7 8.7 0.00 0.11 0.10 79 1018.5
20260505234606 58 41 2.6 7.8 0.00 0.11 0.10 79 1018.7
20260505233039 58 71 3.5 7.0 0.00 0.11 0.10 78 1018.5
20260505231538 58 42 2.6 7.8 0.00 0.11 0.10 78 1018.6
20260505230037 59 92 3.5 8.7 0.00 0.11 0.10 77 1018.7
20260505224536 59 49 2.6 7.0 0.00 0.11 0.10 75 1018.6
20260505223051 59 87 2.6 8.7 0.00 0.11 0.10 75 1018.5
20260505221534 60 62 1.7 7.0 0.00 0.11 0.10 76 1018.5
20260505220031 58 23 4.3 8.7 0.00 0.11 0.10 77 1018.6
20260505214538 58 68 1.7 7.8 0.00 0.11 0.10 79 1018.8
20260505213029 58 26 2.6 8.7 0.00 0.11 0.10 80 1018.8
20260505211528 58 47 0.0 3.5 0.00 0.11 0.10 80 1018.9
20260505210029 57 24 0.9 5.2 0.00 0.11 0.10 81 1018.9
20260505204528 57 44 0.9 5.2 0.00 0.11 0.10 81 1018.9
20260505203025 57 314 1.7 6.1 0.00 0.11 0.10 82 1018.9